Location: Sternwarte ZA, Rosenfeld-Brittheim
(48.2889°N, 8.6789°E)
Time: 08:28:10
(UTC+01:00)

ISS - Pass Details

Date: 14 November 2018
Orbit: 401 x 408 km, 51.6° (Epoch: 20 November)

Event Time Altitude Azimuth Distance (km) Brightness Sun altitude
Exits shadow 05:45:00 19° 205° (SSW) 1,031 -2.0 -17.5°
Drops below altitude 10° 05:46:54 10° 171° (S) 1,457 -0.8 -17.2°
Sets 05:49:19 0° 154° (SSE) 2,314 0.5 -16.8°
